Weather in Novomakarovo

Russia / Voronezh Oblast     51°27′34″N   41°14′08″E
temp.,
°C
wind,
m/s
gust,
m/s
humid.,
%
clouds,
%
prec.,
mm/h
press.,
hPa
HPBL,
m
25 february, thu
thu2500:00−15ssw489591 0.2 1037333
03:00−14ssw5109595 0.6 1035398
06:00−12ssw61094100 0.3 1031431
09:00−10sw61194100 0.9 1029465
12:00−8sw81395100 1.3 1026454
15:00−4sw91493100 2.0 1021438
18:00−1wsw81595100 0.7 1018508
21:00+1w61299100 1.2 1017312
26 february, fri
fri2600:00+1w61299100 0.2 1017290
03:00+1wnw51299100 0.4 1017306
06:00+1wnw410100100 0.2 1016245
09:00+2w510100100 0.9 1016281
12:00+2w511100100 0.1 1015250
15:00+2wsw71499100 0.1 1014404
18:00+2w71598100 0.1 1011384
21:00+2wsw61399100 0.4 1010364
27 february, sat
sat2700:00+2w61397100 0.0 1009467
03:00+1w51294100 0.0 1008501
06:00+1w61295100 0.0 1007489
09:00+1w61298100 0.1 1007563
12:00+1w51198100 0.0 1007597
15:00+1w61197100 0.1 1007515
18:00+1wnw61297100 0.1 1006546
21:000wnw61097100 0.2 1007526
28 february, sun
sun2800:000wnw61195100 0.1 1008560
03:00−2nnw499196 0.3 1010487
06:00−6nnw588976 0.0 1011442
09:00−7nnw478885 0.0 1013471
12:00−6nnw578696 0.0 1015538
15:00−5nnw588698 0.0 1016647
18:00−6nnw489096 0.0 1018573
21:00−6n578997 0.1 1020623
1 march, mon
mon100:00−7nnw259688 0.2 1022317
03:00−7nnw369584 0.3 1023254
06:00−9nnw389480 0.0 1025284
09:00−8n479076 0.0 1027494
12:00−7n468593 0.0 1028571
15:00−6nnw578697 0.0 1029640
18:00−6nw3691100 0.0 1029274
21:00−6wnw3592100 0.0 1030167